Location: Ottawa
(45.4167°N, 75.7000°W)
Time: 16:51:29
(UTC-05:00)

Tiangong 1 - Pass Details

Date: 12 October 2017
Orbit: 275 x 301 km, 42.8° (Epoch: 15 December)

Event Time Altitude Azimuth Distance (km) Brightness Sun altitude
Rises 19:36:27 0° 270° (W) 2,081 6.8 -13.8°
Reaches altitude 10° 19:38:33 10° 261° (W) 1,233 5.0 -14.2°
Maximum altitude 19:41:07 36° 192° (SSW) 520 1.8 -14.6°
Enters shadow 19:41:59 28° 150° (SSE) 635 1.8 -14.8°
